Regional Weather Roundup
Issued by NWS Charleston, WV

Home | Current Version | Previous Version | Graphics & Text | Print | Product List | Glossary On
Versions: 1 2 3 4 5 6 7 8 9 10 11 12 13 14 15 16 17 18 19 20 21 22 23 24 25 26 27 28 29 30 31 32 33 34 35 36 37 38 39 40 41 42 43 44 45 46 47 48 49 50
000
ASUS41 KRLX 301510
RWRRLX
West Virginia Regional Weather Roundup
National Weather Service Charleston WV
1100 AM EDT THU JUL 30 2015

Note: "fair" indicates few or no clouds below 12,000 feet with no
significant weather and/or obstructions to visibility.

WVZ003-301600-
Northern Panhandle of West Virginia

CITY           SKY/WX    TMP DP  RH WIND       PRES   REMARKS
WHEELING       SUNNY     81  59  47 VRB6      30.01R
$$

WVZ009-301600-
Northwest West Virginia

CITY           SKY/WX    TMP DP  RH WIND       PRES   REMARKS
PARKERSBURG    SUNNY     82  60  47 VRB3      30.04S
$$

WVZ006-301600-
Western West Virginia

CITY           SKY/WX    TMP DP  RH WIND       PRES   REMARKS
HUNTINGTON     MOSUNNY   81  62  52 N7        30.05R
$$

WVZ015-301600-
West Central West Virginia

CITY           SKY/WX    TMP DP  RH WIND       PRES   REMARKS
CHARLESTON     MOSUNNY   80  70  71 W6        30.04R
$$

WVZ022-031-301600-
North Central West Virginia

CITY           SKY/WX    TMP DP  RH WIND       PRES   REMARKS
CLARKSBURG     PTSUNNY   78  71  79 NW6       30.01S
MORGANTOWN     PTSUNNY   79  65  62 CALM      30.01F
$$

WVZ025-035-042-045-301600-
Southern West Virginia

CITY           SKY/WX    TMP DP  RH WIND       PRES   REMARKS
BECKLEY        PTSUNNY   75  70  84 W8        30.11R
LOGAN          CLOUDY    75  72  88 CALM      30.04S
BLUEFIELD      CLOUDY    75  70  84 W3        30.14R
LEWISBURG      CLOUDY    76  71  87 SW5       30.09S
$$

WVZ047-301600-
Northern Mountains of West Virginia

CITY           SKY/WX    TMP DP  RH WIND       PRES   REMARKS
ELKINS         PTSUNNY   78  71  79 VRB5      30.06R
$$

WVZ052-301600-
Eastern Panhandle of West Virginia

CITY           SKY/WX    TMP DP  RH WIND       PRES   REMARKS
MARTINSBURG    PTSUNNY   84  71  65 W14       29.93R
PETERSBURG     CLOUDY   N/A N/A N/A CALM      29.99R
$$


USA.gov is the U.S. government's official web portal to all federal, state and local government web resources and services.